Regional Weather Roundup
Issued by NWS Kansas City/Pleasant Hill, MO

Home | Current Version | Previous Version | Graphics & Text | Print | Product List | Glossary Off
Versions: 1 2 3 4 5 6 7 8 9 10 11 12 13 14 15 16 17 18 19 20 21 22 23 24 25 26 27 28 29 30 31 32 33 34 35 36 37 38 39 40 41 42 43 44 45 46 47 48 49 50

000
ASUS43 KEAX 031710
RWREAX

WEATHER ROUNDUP FOR EASTERN KANSAS AND NORTHWEST MISSOURI
NATIONAL WEATHER SERVICE KANSAS CITY/PLEASANT HILL MO
1200 PM CDT FRI JUL 03 2015

KSZ040-057-103>105-MOZ028-029-037-043-031800-
...KANSAS CITY METROPOLITAN AREA...

CITY           SKY/WX    TMP DP  RH WIND       PRES   REMARKS
K.C. INTL      MOSUNNY   75  58  55 NE9       29.98R
K.C. DOWNTOWN  MOSUNNY   78  61  55 NE8       29.96R
LEES SUMMIT    MOSUNNY   75  62  64 NE8       29.98R
OLATHE - IXD   CLOUDY    74  66  76 NE5       29.98S
OLATHE - OJC   PTSUNNY   74  64  71 NE7       29.97R
LAWRENCE       PTSUNNY   75  64  68 NE8       29.97S

$$

MOZ001>008-011>017-020>025-030>033-038>040-044>046-053-054-031800-
...NORTHERN AND CENTRAL MISSOURI...

CITY           SKY/WX    TMP DP  RH WIND       PRES   REMARKS
ST. JOSEPH     SUNNY     75  58  55 NE8       29.99S
MOSBY          SUNNY     73  57  56 N7        29.98R
HARRISONVILLE  CLOUDY    79  66  65 E6        29.98F
WARRENSBURG    PTSUNNY   73  64  73 N6        29.96S
WHITEMAN AFB   MOSUNNY   74  65  73 VRB3      29.95S
CLINTON        CLOUDY    75  70  83 N6        29.96R
SEDALIA        MOSUNNY   77  64  64 N7        29.97S
WARSAW         NOT AVBL
CHILLICOTHE      N/A     76  59  55 NE9       29.99R
KIRKSVILLE     PTSUNNY   74  58  57 N9        29.99S

$$

MOZ041-047>049-056>058-063>065-088>090-097-031800-
...EASTERN AND SOUTHERN MISSOURI...

CITY           SKY/WX    TMP DP  RH WIND       PRES   REMARKS
ST. LOUIS INTL MOSUNNY   78  65  63 N9        29.93S
SPIRIT OF STL  PTSUNNY   77  66  68 NE8       29.93R
COLUMBIA       SUNNY     76  59  55 NE6       29.96R
JEFFERSON CITY SUNNY     77  58  51 N6        29.94S
MEXICO         SUNNY     77  66  69 N7        29.96R
ROLLA          PTSUNNY   73  64  73 NE5       29.95R
LEBANON        DRIZZLE   72  66  83 NE6       29.95S
OSAGE BEACH    CLOUDY    73  66  78 E6        29.95S
SPRINGFIELD    PTSUNNY   77  70  79 NW8       29.93S
BRANSON        PTSUNNY   77  70  78 W6        29.96R
JOPLIN         PTSUNNY   79  71  76 VRB5      29.93S
WEST PLAINS    CLOUDY    73  68  84 VRB6      29.96S
MALDEN         MOSUNNY   81  72  74 W3        29.92S

$$

IAZ060-094-KSZ022-034>040-054-083-096-NEZ052-066-093-031800-
...KANSAS...SOUTHEAST NEBRASKA AND IOWA...

CITY           SKY/WX    TMP DP  RH WIND       PRES   REMARKS
TOPEKA         CLOUDY    74  65  73 NE6       29.98R
MANHATTAN      CLOUDY    74  66  76 NE8       30.00R
EMPORIA        CLOUDY    73  66  78 NE13      29.97R
CHANUTE        MOSUNNY   81  68  64 CALM      29.93S
WICHITA        CLOUDY    76  65  68 N14       29.98S
OMAHA          MOSUNNY   72  55  55 N7        30.03S
LINCOLN        PTSUNNY   74  59  59 N5        30.04R
FALLS CITY     SUNNY     75  56  51 NE8       30.00S
LAMONI         MOSUNNY   73  59  61 NE7       30.00F
DES MOINES     MOSUNNY   75  54  47 E6        30.01R

$$




USA.gov is the U.S. government's official web portal to all federal, state and local government web resources and services.